Location: Madrid
(40.4000°N, 3.6830°W)
Time: 21:02:23
(UTC+01:00)

ISS - Pass Details

Date: 04 March 2021
Orbit: 417 x 422 km, 51.6° (Epoch: 26 February)

Event Time Altitude Azimuth Distance (km) Brightness Sun altitude
Exits shadow 07:15:37 - 314° (NW) 2,194 -0.6 -6.2°
Reaches altitude 10° 07:17:43 10° 332° (NNW) 1,498 -1.2 -5.8°
Maximum altitude 07:20:08 18° 18° (NNE) 1,103 -1.4 -5.3°
Drops below altitude 10° 07:22:32 10° 64° (ENE) 1,496 0.1 -4.8°
Sets 07:25:06 0° 84° (E) 2,359 2.3 -4.4°
